Location: Gu�tanj
(46.5431°N, 14.9692°E)
Time: 13:09:34
(UTC+00:00)

COSMOS 2428 - Pass Details

Date: 03 March 2021
Orbit: 845 x 858 km, 70.9° (Epoch: 20 April)

Event Time Altitude Azimuth Distance (km) Brightness Sun altitude
Rises 19:16:51 0° 202° (SSW) 3,391 5.9 -25.9°
Reaches altitude 10° 19:19:17 10° 202° (SSW) 2,460 5.1 -26.3°
Enters shadow 19:24:44 81° 156° (SSE) 862 2.5 -27.2°
Exits shadow 19:32:02 - 28° (NNE) 3,013 5.5 -28.3°
Sets 19:33:06 0° 28° (NNE) 3,423 5.8 -28.5°
